TimeCST,TemperatureF,Dew PointF,Humidity,Sea Level PressureIn,VisibilityMPH,Wind Direction,Wind SpeedMPH,Gust SpeedMPH,PrecipitationIn,Events,Conditions,WindDirDegrees,DateUTC
12:57 AM,66.0,55.9,70,29.83,10.0,South,17.3,24.2,N/A,,Clear,170,2012-11-11 06:57:00
1:57 AM,66.0,55.9,70,29.82,10.0,SSE,16.1,27.6,N/A,,Mostly Cloudy,160,2012-11-11 07:57:00
2:57 AM,66.0,57.0,73,29.80,10.0,South,21.9,31.1,N/A,,Overcast,170,2012-11-11 08:57:00
3:57 AM,66.9,57.0,70,29.83,10.0,South,15.0,23.0,0.00,,Overcast,190,2012-11-11 09:57:00
4:57 AM,66.9,57.0,70,29.83,10.0,South,17.3,31.1,N/A,,Overcast,180,2012-11-11 10:57:00
7:57 AM,66.9,57.0,70,29.81,10.0,SSE,18.4,28.8,N/A,,Overcast,160,2012-11-11 13:57:00
8:11 AM,66.2,57.2,73,29.84,10.0,SSE,20.7,33.4,N/A,,Overcast,160,2012-11-11 14:11:00
8:19 AM,66.2,57.2,73,29.84,10.0,SSE,20.7,35.7,N/A,,Overcast,160,2012-11-11 14:19:00
8:57 AM,66.0,57.0,73,29.79,10.0,SSE,19.6,36.8,N/A,,Mostly Cloudy,160,2012-11-11 14:57:00
9:04 AM,66.2,57.2,73,29.81,10.0,SSE,26.5,36.8,N/A,,Overcast,160,2012-11-11 15:04:00
9:57 AM,66.9,57.9,73,29.78,10.0,South,24.2,31.1,N/A,,Overcast,170,2012-11-11 15:57:00
10:14 AM,60.8,53.6,77,29.86,10.0,West,27.6,32.2,0.00,Rain,Light Rain,280,2012-11-11 16:14:00
10:17 AM,57.2,51.8,82,29.86,9.0,WNW,20.7,31.1,0.04,Rain,Heavy Rain,290,2012-11-11 16:17:00
10:23 AM,53.6,48.2,82,29.88,6.0,WNW,23.0,29.9,0.06,Rain,Rain,290,2012-11-11 16:23:00
12:00 PM,50.0,48.2,94,29.92,5.0,NW,11.5,-,0.01,Rain,Rain,320,2012-11-11 18:00:00
12:06 PM,50.0,48.2,94,29.91,6.0,NW,9.2,-,0.02,Rain,Rain,320,2012-11-11 18:06:00
12:11 PM,50.0,48.2,94,29.92,5.0,WNW,6.9,-,0.03,Rain,Rain,300,2012-11-11 18:11:00
12:48 PM,50.0,48.2,94,29.92,6.0,NW,8.1,-,0.18,Rain,Rain,310,2012-11-11 18:48:00
1:08 PM,50.0,48.2,94,29.94,4.0,NW,3.5,-,0.03,Rain,Rain,310,2012-11-11 19:08:00
1:11 PM,50.0,48.2,94,29.93,4.0,WNW,3.5,-,0.03,Rain,Rain,300,2012-11-11 19:11:00
1:22 PM,50.0,48.2,94,29.93,7.0,North,3.5,-,0.05,Rain,Light Rain,10,2012-11-11 19:22:00
1:27 PM,50.0,48.2,94,29.94,7.0,Calm,Calm,-,0.06,Rain,Light Rain,0,2012-11-11 19:27:00
1:35 PM,50.0,48.2,94,29.94,5.0,NW,4.6,-,0.06,Rain,Rain,310,2012-11-11 19:35:00
2:57 PM,48.9,46.0,90,29.92,10.0,Calm,Calm,-,0.06,Rain,Light Rain,0,2012-11-11 20:57:00
3:35 PM,48.2,46.4,93,29.95,7.0,Calm,Calm,-,0.05,Rain,Rain,0,2012-11-11 21:35:00
3:44 PM,48.2,46.4,93,29.94,10.0,Calm,Calm,-,0.05,Rain,Light Rain,0,2012-11-11 21:44:00
3:57 PM,48.9,46.9,93,29.94,10.0,Calm,Calm,-,0.06,Rain,Light Rain,0,2012-11-11 21:57:00
4:36 PM,46.4,44.6,93,29.98,10.0,NW,17.3,-,0.03,Rain,Rain,310,2012-11-11 22:36:00
4:57 PM,42.1,41.0,96,30.00,10.0,WNW,15.0,-,0.04,Rain,Light Rain,300,2012-11-11 22:57:00
5:20 PM,41.0,39.2,93,30.03,3.0,NW,11.5,-,0.00,,Overcast,310,2012-11-11 23:20:00
5:57 PM,39.0,37.9,96,30.04,6.0,NW,15.0,-,0.00,,Overcast,320,2012-11-11 23:57:00
6:57 PM,37.4,37.4,100,30.10,1.8,WNW,10.4,-,0.00,,Overcast,300,2012-11-12 00:57:00
7:03 PM,37.4,37.4,100,30.10,2.0,WNW,11.5,-,N/A,,Overcast,290,2012-11-12 01:03:00
7:08 PM,37.4,35.6,93,30.10,3.0,WNW,11.5,-,N/A,,Overcast,290,2012-11-12 01:08:00
7:57 PM,35.6,35.6,100,30.13,8.0,WNW,13.8,19.6,0.00,,Overcast,300,2012-11-12 01:57:00
8:10 PM,35.6,35.6,100,30.15,10.0,WNW,11.5,-,N/A,,Overcast,300,2012-11-12 02:10:00
8:57 PM,35.1,33.1,92,30.17,10.0,NW,15.0,-,N/A,,Overcast,320,2012-11-12 02:57:00
9:57 PM,34.0,30.9,89,30.19,10.0,NNW,13.8,24.2,N/A,,Overcast,330,2012-11-12 03:57:00
10:37 PM,33.8,28.4,81,30.21,10.0,NNW,8.1,23.0,N/A,,Overcast,330,2012-11-12 04:37:00
10:57 PM,33.1,28.0,82,30.22,10.0,NW,8.1,-,N/A,,Overcast,320,2012-11-12 04:57:00
11:18 PM,32.0,28.4,87,30.22,10.0,NW,9.2,-,N/A,,Scattered Clouds,310,2012-11-12 05:18:00
11:57 PM,30.9,27.0,85,30.26,10.0,NW,8.1,-,N/A,,Clear,310,2012-11-12 05:57:00